Wind_Speed
15 15 15 15 15 14 13 12 11 10 9 8 8 7 7 7 7 7 7 8 8 8 9 10 10 8 7 7 7 6 6 7 9 11 10 6 9 11 13 14 14 13 10 12 14 16 19 18 17 14 10 9 9 12 12 10 8 4 2 1 1 1 1 3 2 2 6 5 8 13 12 9 8 9 11 8 11 23 23 22 23 23 26 29 33 39 39 39
16 16 15 15 15 15 15 14 12 11 10 9 8 7 7 6 7 7 7 8 9 9 9 10 10 9 8 7 7 6 6 7 9 11 8 5 12 15 15 17 17 16 13 13 15 18 20 19 17 11 9 9 8 13 13 9 9 4 2 1 2 2 2 5 5 6 7 8 10 12 14 12 9 12 14 8 12 23 20 21 28 28 29 32 37 39 39 40
16 16 16 15 15 15 15 15 14 13 11 10 9 8 7 6 6 6 7 8 8 9 9 10 10 9 8 8 6 6 6 7 8 5 3 4 9 14 16 18 18 18 15 12 13 17 17 16 14 9 9 10 7 13 12 9 8 3 2 1 3 3 3 6 9 9 10 14 12 10 15 14 11 11 14 11 15 19 16 21 28 31 35 37 37 37 38 38
17 17 16 16 15 15 15 15 15 15 14 12 10 9 8 6 5 5 7 7 8 9 9 9 9 9 9 8 6 5 6 5 1 3 3 2 4 11 15 18 19 18 15 12 13 16 15 13 11 8 10 9 8 13 10 10 8 3 4 2 3 3 1 8 12 12 14 18 16 13 15 15 12 9 12 16 14 10 14 25 32 36 41 40 38 36 35 37
19 18 18 17 16 16 15 15 15 15 14 14 13 11 9 7 6 5 5 6 8 8 8 9 9 9 8 7 5 4 3 3 4 6 5 6 5 7 12 16 18 18 16 15 14 17 16 14 11 11 11 8 7 8 7 13 11 3 4 5 6 4 1 10 13 14 18 17 15 13 13 14 12 9 11 15 9 8 19 30 36 40 43 42 40 36 35 37
20 20 19 18 17 17 16 16 15 14 13 14 14 13 11 8 7 6 5 5 7 8 8 8 9 9 7 6 5 3 1 2 6 7 5 6 7 5 9 14 18 18 18 17 17 18 17 15 11 10 9 6 8 6 7 16 13 2 3 6 10 9 3 12 14 15 20 17 12 13 14 14 11 8 10 10 7 14 28 35 38 41 43 43 39 37 37 36
20 20 20 19 18 18 17 16 15 14 13 12 13 14 12 10 8 7 6 5 7 8 8 7 8 8 7 5 4 3 5 4 6 7 6 5 5 4 6 13 17 19 20 19 21 20 17 14 11 11 7 4 8 8 9 15 13 5 3 7 12 11 6 14 16 14 19 16 13 15 15 14 11 8 9 8 8 19 34 38 37 39 41 40 37 37 37 35
20 20 20 19 19 18 17 16 15 14 13 12 12 13 13 11 9 8 7 6 7 7 7 6 7 7 6 4 2 4 7 5 4 5 6 3 1 1 3 12 17 20 22 22 22 20 16 14 13 11 6 4 7 7 9 11 8 6 5 8 11 10 10 18 18 14 17 16 16 17 12 10 11 11 12 6 8 19 34 38 36 39 38 36 36 36 36 34
20 20 20 19 19 18 17 16 15 14 13 12 11 11 12 11 9 8 8 8 8 7 6 6 7 6 5 4 2 3 4 3 4 4 3 1 3 3 3 9 17 21 22 22 23 19 15 15 15 11 6 7 8 7 12 10 4 10 10 7 6 8 13 16 16 12 13 16 17 15 7 7 11 13 12 7 10 17 29 37 37 38 35 34 36 36 34 33
20 20 19 19 18 17 16 15 15 14 13 12 11 10 11 10 8 9 9 9 8 5 5 6 7 5 4 4 2 1 3 5 2 1 2 4 5 6 5 8 17 22 23 24 25 20 16 15 12 8 7 8 7 5 14 10 4 13 12 9 12 16 16 12 9 7 10 15 15 11 7 12 12 9 6 6 13 18 29 37 36 36 33 34 35 34 32 30
20 18 18 17 16 16 15 15 14 13 13 12 10 9 10 9 8 8 9 9 6 4 4 5 6 5 5 5 6 3 4 4 1 3 4 6 8 8 6 8 17 22 23 26 25 21 16 14 8 4 6 5 7 5 11 7 6 8 14 14 17 20 16 11 7 3 1 6 12 11 11 13 10 4 4 9 12 21 34 35 35 35 30 33 35 32 31 29
18 17 16 16 16 16 15 15 14 13 13 12 10 8 9 9 7 7 8 8 5 4 5 5 6 6 5 8 10 5 6 5 3 2 4 6 6 7 6 9 17 20 23 26 24 20 13 7 6 8 8 7 7 5 4 4 9 7 15 11 12 12 9 8 7 2 5 2 13 15 9 8 7 2 6 11 14 27 34 29 32 34 29 33 34 32 32 30
16 16 16 16 17 17 16 16 15 13 12 11 10 8 8 9 7 6 6 6 5 5 6 5 5 6 6 8 8 7 7 6 4 5 5 6 5 8 8 11 16 19 22 24 20 15 9 4 7 12 14 10 4 5 6 10 7 8 9 7 9 6 3 3 5 10 5 6 10 7 3 4 6 6 11 15 20 27 27 24 30 31 28 32 33 32 31 30
15 15 16 17 18 18 17 17 16 14 12 10 9 7 7 8 7 6 5 5 4 4 6 5 5 6 7 6 6 6 6 7 8 8 4 4 5 11 10 12 16 18 20 22 16 10 9 8 12 15 14 8 4 7 7 7 2 8 7 4 6 3 4 6 4 11 10 10 14 5 2 5 6 8 11 14 20 26 26 25 27 28 29 31 32 31 29 29
14 15 16 18 19 19 18 17 16 15 13 10 8 6 7 8 6 5 4 4 3 4 6 5 5 6 9 8 5 7 6 9 10 8 4 3 7 13 13 14 14 16 19 19 14 9 9 10 14 14 9 6 4 5 3 3 1 7 5 2 3 4 6 5 7 13 10 11 17 8 3 5 6 9 11 14 20 26 27 25 22 25 30 31 31 30 27 29
13 15 17 19 20 20 19 17 16 15 13 10 6 6 6 8 7 5 4 4 3 3 4 3 4 5 7 6 6 8 8 11 10 7 7 4 8 14 14 13 11 13 17 15 10 6 7 10 12 9 3 4 3 3 4 4 3 2 4 4 4 5 5 2 7 14 12 10 10 6 3 3 6 11 13 17 21 24 24 23 19 22 29 33 32 29 28 30
12 14 17 19 20 21 20 18 17 14 12 9 5 5 7 7 7 6 4 5 5 4 4 4 5 7 7 5 5 8 11 12 10 10 11 5 7 13 14 12 11 12 13 11 8 9 11 9 6 4 1 1 1 4 4 1 3 2 2 4 4 6 7 4 5 12 12 9 5 2 3 3 7 11 14 17 21 22 22 19 17 19 29 34 31 28 29 30
11 13 16 18 19 20 19 18 17 13 10 7 4 5 7 8 7 7 7 7 6 5 6 6 5 5 4 6 3 5 10 11 10 12 13 9 8 12 13 11 11 11 10 9 9 12 11 4 4 2 1 1 1 4 3 4 3 1 3 4 2 4 6 6 5 10 14 10 6 4 4 5 8 11 13 17 19 20 20 16 15 18 27 34 30 28 30 28
11 13 15 17 18 19 18 17 16 12 9 6 5 6 5 8 7 5 6 7 6 4 4 6 7 2 4 7 8 6 7 9 9 12 14 12 11 12 12 10 12 14 10 5 6 9 7 1 3 2 1 4 5 5 7 5 2 3 1 3 5 4 4 6 4 9 16 10 6 7 6 8 10 9 12 16 16 17 17 15 13 15 25 33 29 28 30 26
11 13 16 17 18 17 16 16 15 12 9 6 5 6 5 7 4 1 6 10 11 10 11 12 12 14 15 12 9 4 7 9 9 11 13 14 13 15 15 12 13 13 8 5 3 7 6 3 2 5 5 7 8 8 9 5 3 5 6 1 7 7 4 7 5 8 14 7 4 7 6 8 10 8 10 17 17 16 15 14 13 12 23 32 28 29 29 25
11 14 16 17 16 16 15 15 15 13 9 6 6 7 7 7 4 4 11 14 15 16 17 17 16 21 21 14 9 8 7 11 10 12 12 13 13 14 16 12 8 6 5 7 5 4 5 3 5 8 8 9 9 9 7 5 5 7 7 3 4 7 6 8 8 10 12 4 4 8 7 7 7 7 10 15 14 14 16 16 14 12 22 29 26 30 29 25
11 13 16 16 15 15 15 14 14 12 9 7 8 8 8 8 7 10 11 13 17 19 17 15 17 20 21 17 12 12 9 11 10 13 13 13 11 10 13 9 4 3 4 6 4 1 4 4 8 10 10 8 8 9 7 6 6 7 5 1 1 3 4 5 6 10 10 2 4 9 8 6 5 6 9 12 11 15 19 17 15 13 20 26 23 28 30 27
11 13 15 15 15 14 13 13 11 10 8 6 7 8 8 8 8 11 11 10 14 17 14 12 15 17 16 14 8 8 13 11 9 13 14 14 13 12 13 8 3 4 3 3 5 3 4 6 11 13 9 7 8 10 8 6 4 6 4 2 2 3 7 5 6 11 8 2 6 9 6 4 5 4 5 9 10 12 14 14 14 13 17 23 21 25 28 27
11 13 14 15 14 13 11 10 9 9 9 6 5 6 8 7 7 12 12 6 7 10 11 11 12 15 15 10 5 13 12 9 10 14 15 15 14 11 11 8 5 4 4 5 7 5 5 10 14 12 8 8 9 10 8 5 4 6 5 4 4 6 7 5 8 11 6 4 8 10 6 1 4 6 5 6 8 8 11 14 17 16 17 21 19 22 24 25
11 12 14 14 14 12 9 7 8 11 10 8 9 7 6 6 8 12 10 3 4 6 7 9 10 12 11 3 7 8 6 8 11 14 17 17 14 10 7 9 7 4 6 7 6 5 8 15 12 8 8 8 8 8 8 7 4 5 5 8 9 10 9 6 10 11 5 4 8 8 5 1 3 7 6 5 7 8 11 16 19 20 22 22 21 22 21 22
11 12 14 15 12 8 6 5 7 10 9 9 11 9 7 7 8 10 6 2 3 3 2 4 5 5 3 4 7 4 3 6 10 14 19 17 15 11 5 6 6 5 8 6 4 3 6 14 10 8 10 9 7 8 8 8 5 5 5 8 12 12 10 11 14 12 4 4 11 9 4 2 3 6 7 7 8 9 10 13 18 22 24 24 25 25 23 21
11 12 13 14 11 7 6 6 6 8 8 7 8 9 8 6 8 10 4 3 3 2 1 3 4 2 4 7 10 6 2 3 8 13 18 17 15 13 6 3 3 5 5 3 3 4 6 10 7 7 10 8 6 7 7 7 6 5 6 5 11 13 12 15 17 11 3 4 9 8 3 4 3 6 9 9 9 9 10 11 15 21 25 26 28 29 27 24
11 12 11 12 11 8 7 7 7 7 7 8 9 8 5 5 9 8 2 2 2 2 0 3 3 3 7 9 14 12 2 1 2 9 19 19 14 12 7 5 3 3 4 2 4 6 6 9 8 8 8 6 6 7 7 7 5 7 7 4 9 14 13 13 12 7 1 4 5 8 3 4 2 4 8 10 9 10 12 13 15 21 27 27 28 31 30 27
10 11 10 10 9 8 6 5 6 6 6 9 8 5 4 7 9 4 3 2 1 2 2 3 2 4 8 7 10 13 6 4 2 12 21 19 13 10 5 5 4 3 6 5 6 6 5 10 11 8 6 6 7 8 8 7 5 7 5 5 5 7 8 10 10 6 2 2 5 10 7 4 2 4 7 9 10 12 13 12 15 23 29 29 30 32 32 31
9 10 9 9 9 9 7 5 6 5 6 7 6 6 8 8 4 2 2 2 1 2 1 2 3 6 7 2 3 7 4 5 6 13 16 13 13 9 4 5 4 3 4 3 5 7 8 12 12 7 7 9 10 10 10 10 9 6 2 3 3 2 4 6 7 5 4 2 7 13 11 7 2 4 7 8 9 14 13 10 14 21 27 30 31 33 35 34
8 10 10 10 10 10 10 7 5 5 6 6 7 11 11 5 2 4 2 1 1 2 0 2 3 4 6 3 2 3 1 3 4 9 8 6 6 4 1 2 3 2 3 4 4 5 5 7 7 6 9 9 7 8 8 8 8 4 1 4 2 3 2 3 4 5 5 5 8 14 11 8 4 4 9 12 8 11 15 13 14 19 24 29 30 33 36 36
8 10 10 10 11 11 10 6 3 3 4 5 11 14 7 3 3 1 1 2 1 1 1 3 3 3 5 4 3 3 2 2 2 5 5 3 3 2 2 3 2 1 3 3 3 4 4 5 5 5 7 6 4 3 3 3 2 2 3 5 3 1 1 2 4 5 5 5 5 12 11 5 4 4 12 18 11 10 16 16 19 22 24 28 29 31 34 36
8 10 9 10 10 8 5 3 2 2 3 7 13 10 4 5 2 2 2 2 2 2 1 3 4 3 5 4 2 3 3 1 4 4 3 3 3 3 4 5 5 4 1 2 2 3 3 5 5 3 4 4 5 4 3 2 0 3 4 4 4 2 2 1 3 2 4 5 2 12 12 4 3 2 6 14 13 13 18 19 23 26 26 29 31 31 32 34
9 10 10 10 8 4 2 3 3 4 7 11 11 5 5 4 2 3 2 2 3 3 3 2 3 2 3 3 3 2 3 1 4 6 4 3 3 1 3 5 5 5 2 2 2 1 1 3 5 4 4 5 5 5 7 4 1 2 4 5 5 4 4 3 4 3 4 4 2 7 7 2 2 2 7 5 9 13 17 17 20 23 25 28 30 31 32 33
9 10 10 9 5 2 2 4 5 6 10 13 8 4 5 2 3 2 3 3 2 4 7 6 1 2 1 2 2 1 4 2 3 4 3 3 3 1 2 2 3 4 3 1 2 1 0 3 6 4 6 8 5 4 6 5 1 3 2 6 3 4 5 2 4 4 4 3 2 2 1 2 3 3 6 3 7 11 16 16 17 19 21 24 26 28 30 32
10 10 10 8 4 1 4 4 5 8 10 9 6 3 1 1 3 2 2 4 4 4 6 7 5 4 2 2 3 3 2 3 2 2 1 3 4 6 3 2 5 3 4 2 1 2 2 3 7 6 4 9 9 6 6 6 2 2 0 3 4 4 6 2 3 2 2 4 1 1 1 2 1 1 6 5 7 7 11 15 17 18 20 22 24 25 27 30
9 9 10 7 3 3 5 4 4 6 7 5 4 1 2 2 3 2 3 6 6 4 4 5 4 3 2 1 3 5 1 1 1 2 3 2 3 7 6 3 8 7 2 2 1 1 2 2 7 3 3 7 8 7 6 6 6 3 1 4 5 2 5 3 1 2 3 3 1 2 2 1 0 0 4 2 4 4 6 12 15 17 20 20 21 24 26 27
7 9 9 4 4 4 6 5 2 4 4 3 2 4 1 1 7 7 7 7 5 4 5 4 2 2 3 1 2 7 4 2 2 3 4 4 2 4 6 5 7 10 8 4 2 1 3 1 6 3 2 5 2 6 4 1 3 4 3 1 1 3 1 0 2 2 1 3 2 3 3 1 1 0 4 3 1 2 3 9 12 13 17 17 16 21 23 25
9 10 6 3 5 4 2 3 3 3 2 2 2 4 1 1 8 10 11 7 3 3 4 3 2 3 4 2 3 6 4 4 6 3 3 4 1 2 5 5 6 11 14 8 2 1 2 2 4 6 5 3 1 4 2 3 2 2 3 2 1 3 3 2 2 3 3 3 3 2 2 2 1 2 2 3 3 7 8 3 6 9 12 14 15 16 17 19
9 9 4 3 7 8 4 4 5 2 1 0 2 3 2 2 8 12 15 12 6 4 3 2 4 4 3 4 3 3 3 5 6 3 2 2 1 3 6 6 4 9 13 7 4 2 2 3 1 7 7 2 0 1 4 5 1 2 3 1 0 1 0 1 1 1 4 4 4 4 1 3 2 2 0 2 3 6 8 7 7 14 16 17 17 16 14 13
8 5 0 4 7 9 8 7 4 1 1 2 2 2 2 2 5 9 14 15 10 7 5 3 3 3 2 4 5 3 3 4 4 3 2 2 3 1 5 7 6 6 7 5 4 3 2 2 1 4 5 2 2 3 4 7 5 3 2 2 2 2 2 1 3 3 2 4 4 5 3 2 2 1 2 5 5 6 7 7 11 17 20 20 19 18 16 15
6 3 2 5 6 10 9 4 2 2 2 2 3 3 5 4 3 7 11 12 10 7 6 4 2 3 3 3 5 4 3 2 3 3 2 2 3 1 5 12 11 7 4 1 2 2 1 2 2 2 3 4 6 5 1 3 4 4 2 1 1 3 3 3 3 3 2 4 3 4 2 0 3 4 5 9 6 7 9 10 12 15 18 20 19 18 16 15
7 6 4 3 5 11 9 1 4 2 2 4 5 5 6 4 5 7 8 8 6 4 5 4 3 5 4 2 3 4 3 2 2 2 2 2 2 3 5 14 13 8 5 1 3 4 2 2 2 3 4 5 5 6 7 5 5 4 2 2 1 0 2 5 4 2 3 3 3 4 2 0 2 4 7 12 11 11 14 14 14 15 17 19 20 19 17 16
10 9 5 1 4 8 6 1 3 3 3 3 2 1 4 5 5 5 4 4 3 2 2 2 3 4 2 2 3 3 2 2 1 2 3 2 0 3 6 10 9 5 4 0 2 4 4 1 2 3 4 5 7 7 8 7 4 2 2 4 3 2 2 2 1 3 3 2 4 6 2 1 2 4 7 11 10 11 13 13 13 15 17 19 21 22 21 19
9 7 6 4 3 7 4 3 3 2 2 4 3 3 4 3 4 7 6 4 4 4 3 1 3 6 4 5 5 5 5 4 1 2 3 2 1 2 5 6 6 4 4 4 4 2 1 1 3 4 3 2 3 2 3 4 3 2 3 5 5 5 4 1 2 4 2 3 4 5 4 3 3 5 7 8 7 6 9 12 13 15 19 20 21 22 22 22
5 3 6 7 2 1 3 3 6 5 2 4 3 2 3 1 2 11 12 6 6 8 4 4 4 7 6 5 4 6 7 6 4 3 4 4 2 2 3 4 6 8 7 10 10 4 3 2 3 4 4 4 4 5 4 2 1 3 7 8 7 7 5 3 4 2 3 4 3 1 9 11 8 7 7 6 6 6 10 14 13 14 19 20 21 22 22 22
4 0 4 5 5 6 7 10 13 8 4 5 2 3 6 4 3 10 13 8 8 9 5 4 4 4 3 2 3 3 4 5 6 5 4 4 3 3 4 3 7 12 9 11 14 6 4 4 6 3 1 2 4 4 4 2 1 5 9 10 10 10 8 5 4 4 6 6 3 1 10 15 11 10 10 8 6 7 11 16 16 16 19 21 23 25 24 24
5 1 5 6 3 2 4 7 9 8 7 8 4 2 7 9 6 6 8 10 12 12 7 3 4 4 4 3 3 1 3 4 5 4 3 4 3 5 6 5 10 16 11 8 9 5 5 2 4 4 5 4 4 5 6 4 3 6 9 9 8 9 8 5 2 4 5 6 6 6 9 12 12 11 11 10 10 10 14 19 19 19 22 22 23 25 24 24
7 3 7 10 5 3 5 7 6 8 7 5 4 5 6 7 7 4 5 7 8 12 9 3 3 5 5 4 4 2 3 3 3 3 2 4 5 3 4 4 9 16 13 5 5 5 3 1 3 4 4 6 8 8 7 7 6 7 10 9 7 7 8 6 2 5 6 8 12 13 11 9 8 10 11 13 15 16 19 22 21 22 22 21 22 23 23 23
9 5 9 12 9 8 11 9 5 7 6 5 4 5 4 6 5 4 5 5 3 7 9 5 4 6 7 6 6 4 2 3 3 2 2 3 4 2 3 1 3 10 10 4 4 6 4 1 2 4 4 6 8 8 9 8 6 8 10 10 8 7 8 8 6 8 10 10 12 15 14 7 3 8 14 16 19 20 21 21 21 21 22 22 23 23 24 24
6 5 8 8 5 7 11 8 3 6 4 4 3 3 4 4 4 3 4 6 6 5 5 4 5 6 7 8 8 5 5 1 2 4 6 4 2 1 1 0 1 3 5 4 4 5 4 2 2 5 5 5 6 7 9 7 6 9 9 9 8 6 4 3 2 5 10 13 13 13 10 5 3 9 14 15 17 19 20 21 21 21 23 25 25 25 25 25
4 3 8 7 2 5 8 5 2 4 2 1 3 3 3 4 6 6 3 6 12 14 11 9 8 6 5 7 7 7 10 8 6 9 10 7 8 9 8 7 8 6 2 2 3 3 3 3 2 4 3 3 7 8 7 5 6 5 4 4 5 4 3 4 3 7 13 13 12 10 6 5 8 11 12 12 14 16 19 22 24 25 26 26 25 24 24 25
Wind_Direction
1 0 359 359 357 355 355 357 358 357 357 356 355 354 350 344 338 333 326 322 320 320 323 324 327 333 327 312 297 280 267 263 268 265 262 232 192 189 186 184 175 180 177 157 165 171 172 178 177 177 185 206 231 221 209 199 177 152 103 67 238 222 188 169 194 153 129 147 150 154 164 138 146 165 128 111 137 138 139 139 134 128 134 140 144 150 154 155
358 358 357 357 355 353 352 352 354 355 353 351 349 349 349 344 337 333 326 319 317 318 320 320 323 329 324 312 302 289 284 275 275 271 262 210 195 192 182 183 179 180 185 170 168 171 173 177 177 178 192 222 229 195 191 178 168 169 107 105 249 222 171 177 168 145 146 153 153 155 142 136 173 166 141 137 137 134 131 131 130 127 133 139 143 148 152 154
353 353 352 352 351 350 349 347 349 350 351 349 344 343 344 344 339 332 326 318 316 316 317 319 320 325 321 313 307 297 302 294 284 277 247 207 200 194 182 183 180 180 188 177 171 172 168 165 169 178 196 233 228 175 179 172 173 197 135 135 255 218 183 182 171 159 157 150 150 156 144 155 191 166 147 148 132 132 136 141 138 132 138 143 146 148 151 155
350 349 348 348 347 345 344 344 344 345 348 347 342 339 337 339 340 332 325 317 315 315 317 319 317 321 316 311 311 305 327 325 272 102 84 106 169 190 186 184 177 176 182 177 177 177 169 167 180 210 216 235 215 175 176 175 176 180 158 186 224 223 189 170 171 164 157 150 152 158 152 160 180 167 148 142 129 135 149 148 145 141 144 147 147 150 154 157
347 346 346 346 344 343 341 339 339 340 342 342 341 338 335 333 331 333 323 316 315 315 319 318 315 318 314 311 313 307 352 28 135 116 82 75 102 170 185 187 177 169 174 175 179 183 187 194 211 242 238 228 193 175 187 182 174 160 200 222 211 227 66 152 163 160 155 151 150 151 151 157 164 162 151 143 131 145 153 150 147 146 148 150 150 152 156 157
344 343 343 343 343 342 339 337 335 335 336 337 337 336 334 327 325 329 317 313 313 315 322 318 314 314 313 309 305 302 318 124 137 137 122 83 76 129 175 187 176 166 171 176 179 185 196 204 223 242 235 216 176 179 201 184 174 164 229 226 219 222 154 146 154 156 156 152 153 153 151 151 149 148 139 127 112 138 151 151 147 148 151 152 151 153 156 158
342 342 342 341 341 340 338 336 333 331 332 332 333 334 333 326 323 322 312 312 310 316 324 316 313 311 312 308 300 298 269 217 143 146 149 109 69 94 166 184 176 169 172 177 180 185 197 205 223 228 229 212 179 194 201 183 179 191 222 214 220 222 182 152 150 156 159 154 156 153 149 148 148 141 120 105 112 136 148 149 146 148 151 152 152 155 158 159
341 342 342 341 340 339 336 335 332 330 329 328 329 331 333 326 318 316 311 311 310 317 322 317 315 309 309 304 296 299 270 232 164 160 147 127 49 62 181 187 179 173 175 179 177 180 193 206 221 221 226 217 206 213 182 172 188 217 213 189 203 205 171 154 150 158 159 155 153 147 144 147 143 123 96 89 121 132 146 148 144 148 151 153 154 156 159 160
340 340 340 341 341 339 336 333 330 329 328 326 325 327 332 327 314 313 310 310 312 313 317 316 314 310 300 278 288 300 250 172 150 157 123 5 283 270 237 197 184 178 178 178 175 180 194 204 213 211 219 232 244 233 173 162 195 217 205 164 163 154 147 146 146 159 158 156 152 142 133 113 117 110 74 63 119 130 146 148 146 148 150 152 155 158 161 164
338 339 341 343 344 344 340 333 329 329 328 326 324 323 329 325 312 309 307 312 316 317 319 312 311 307 278 246 221 263 159 135 121 63 5 310 282 252 240 208 190 183 178 177 177 182 189 191 197 218 247 249 269 252 181 174 242 216 188 105 85 102 116 123 131 166 161 160 159 144 118 90 92 102 78 109 135 143 149 147 150 151 152 154 156 160 163 168
339 342 345 348 351 351 347 339 332 329 328 327 324 320 325 323 310 305 307 314 318 327 319 306 310 299 276 248 222 215 121 139 249 331 327 299 280 249 232 208 193 186 180 178 179 181 184 185 199 272 282 273 313 304 180 181 313 195 150 93 85 95 102 107 118 216 213 164 164 134 106 97 86 68 128 152 145 147 148 147 153 155 156 159 161 164 167 172
343 347 351 353 356 355 352 347 338 333 330 326 324 319 320 318 305 301 308 316 323 327 316 313 310 294 289 262 230 181 137 172 233 288 320 312 269 222 202 199 193 189 182 178 180 182 185 191 234 262 271 290 325 327 180 276 320 150 135 100 96 89 88 107 121 167 335 259 159 127 102 104 93 79 153 159 149 145 148 150 156 158 159 160 164 167 169 174
347 349 352 353 354 353 352 348 341 336 330 323 323 319 316 314 301 299 308 315 325 326 323 325 312 303 294 261 214 157 164 195 225 240 301 326 239 188 176 185 188 191 185 181 179 179 190 228 257 257 272 290 303 300 292 300 308 131 120 105 114 82 100 179 145 138 136 202 181 126 115 136 109 155 168 158 158 154 154 157 159 161 161 159 164 168 171 176
349 349 349 348 348 347 347 344 338 334 328 321 319 316 313 307 292 295 304 307 320 330 335 335 328 321 287 252 179 167 187 185 203 219 275 322 185 162 160 174 183 189 187 185 181 185 215 252 270 265 272 283 290 304 310 316 329 123 97 93 130 116 170 211 170 139 138 193 231 281 150 162 127 164 166 151 166 167 163 163 161 163 164 161 166 171 174 176
349 347 346 344 343 342 342 340 335 331 327 318 315 315 305 300 291 289 297 296 303 322 338 339 340 333 291 269 178 172 170 170 194 203 241 276 160 153 150 155 171 183 188 193 196 209 232 268 277 260 260 283 306 330 339 350 24 132 112 104 183 153 163 203 177 165 153 185 233 265 122 156 137 161 164 152 166 167 164 166 164 164 165 164 170 176 177 178
347 345 344 343 343 341 340 337 333 331 325 316 314 306 293 300 293 284 289 280 287 306 329 334 327 333 296 269 183 177 172 174 190 198 223 235 153 155 146 141 155 176 190 199 206 229 257 282 275 243 232 287 282 30 26 3 350 141 134 167 194 162 155 191 188 190 173 165 225 249 140 154 136 158 165 154 160 163 164 170 175 170 164 166 173 177 176 178
344 343 343 343 344 341 340 337 335 333 326 318 310 294 294 305 295 290 292 271 283 282 278 295 296 302 278 228 182 193 192 188 193 195 207 212 154 150 145 157 166 170 193 210 230 257 268 269 242 213 148 207 159 81 55 337 279 280 128 155 182 159 155 158 183 201 191 169 198 215 142 149 135 145 156 158 161 164 167 175 188 179 165 168 175 176 175 179
340 342 344 345 347 345 343 341 340 341 333 322 306 301 303 314 306 288 287 281 284 277 272 263 251 299 271 205 225 240 206 200 195 186 196 204 181 159 150 168 178 180 205 228 247 251 254 239 158 161 18 210 188 113 151 200 184 117 114 116 127 147 169 181 169 180 185 177 171 159 142 144 138 139 150 158 164 168 170 176 187 180 168 169 174 175 177 180
340 344 347 348 351 349 347 346 348 352 346 335 323 326 333 342 331 270 273 277 263 273 281 237 209 247 277 249 282 285 200 192 187 185 199 199 194 190 170 168 188 195 202 217 251 229 211 116 118 154 185 223 222 184 205 218 60 13 17 117 145 168 193 196 175 161 169 167 164 165 156 154 151 148 147 150 163 174 175 180 180 174 171 171 174 177 179 179
341 347 350 352 354 351 349 348 351 357 358 359 356 0 11 1 354 236 292 283 277 292 287 268 249 257 275 283 304 302 176 185 201 195 199 196 195 200 188 181 192 194 189 173 223 218 178 105 184 205 205 218 228 217 222 239 313 306 291 289 164 174 198 192 176 161 165 158 169 165 147 159 156 146 143 147 160 171 174 183 182 171 172 173 174 179 181 178
341 348 351 353 355 351 348 347 351 358 5 24 34 32 20 6 4 340 320 301 302 305 289 284 271 264 274 282 316 318 207 185 196 190 189 195 189 188 185 183 183 188 201 176 169 200 166 163 219 220 217 214 230 240 235 235 254 260 265 293 177 184 200 184 161 162 168 148 155 153 134 155 153 133 145 149 157 171 176 181 189 183 172 172 173 178 183 176
339 348 352 352 354 350 345 347 351 1 15 35 41 35 20 14 9 352 334 309 307 305 295 291 278 272 274 275 300 304 229 180 185 194 190 188 181 182 179 169 165 201 222 177 142 144 174 219 233 224 223 216 235 253 249 236 235 248 251 298 247 206 148 144 143 162 170 135 143 147 130 142 145 132 148 159 167 179 179 179 190 192 175 172 170 175 182 173
335 343 350 351 352 348 342 347 355 7 21 36 41 38 25 16 10 358 342 308 301 302 291 278 276 272 273 281 280 224 197 171 180 195 188 183 181 184 175 158 164 193 214 180 151 154 187 235 231 225 222 208 230 249 252 253 238 243 234 145 229 177 131 145 168 170 173 122 138 134 111 117 138 139 156 175 178 173 176 179 190 198 183 178 171 173 182 174
330 337 346 350 351 346 341 350 5 6 7 17 29 27 14 9 10 355 339 305 290 291 262 249 269 268 271 290 211 188 179 165 185 188 185 186 178 174 179 177 171 182 216 204 173 167 213 235 223 218 219 199 219 240 239 243 251 247 213 172 187 163 160 179 160 165 160 101 130 121 89 77 158 166 175 176 170 158 167 179 194 202 190 186 184 178 182 178
328 334 342 347 350 349 346 356 4 357 359 17 17 4 355 5 5 349 341 323 288 284 245 237 254 260 268 272 190 192 168 181 202 191 188 190 179 170 188 191 175 192 220 207 188 185 233 243 226 210 224 209 211 235 229 212 230 261 222 188 182 165 167 170 150 160 149 112 164 143 99 286 186 180 191 172 167 170 170 179 197 202 191 197 204 191 186 184
329 332 340 345 349 355 1 4 356 353 358 14 11 3 5 10 353 336 338 31 320 273 213 207 215 235 237 178 192 185 135 211 221 202 193 191 191 187 183 193 184 201 210 200 200 188 232 244 225 198 221 219 211 233 235 204 195 255 233 182 176 166 156 162 165 171 163 157 190 182 114 134 189 200 200 182 180 184 175 182 197 199 195 203 210 201 196 190
328 332 340 345 348 354 4 357 351 0 359 351 347 347 357 354 328 324 332 50 356 282 208 174 181 202 174 174 191 173 97 239 221 210 197 188 199 200 193 224 196 205 212 172 209 225 225 235 222 200 216 217 211 231 235 195 175 235 243 164 158 169 165 169 175 183 181 124 175 198 122 108 198 206 185 181 189 190 187 194 197 196 199 205 209 206 201 193
329 333 342 346 344 347 357 352 357 12 352 335 337 337 344 325 314 326 28 92 337 308 143 169 177 205 190 188 200 199 205 19 161 205 200 192 199 194 197 235 206 244 265 186 225 251 227 222 213 195 208 216 211 224 218 181 178 236 237 147 151 175 171 162 170 188 205 88 160 206 159 96 224 198 164 176 193 201 200 201 197 195 200 205 208 207 202 194
328 330 340 344 338 336 340 334 343 356 337 338 353 355 341 326 321 337 92 89 318 272 175 169 163 192 197 193 211 218 244 324 255 194 189 191 199 191 197 227 209 277 271 209 219 252 244 238 227 191 188 218 220 228 218 185 207 241 210 133 134 169 157 152 169 180 169 139 190 201 170 112 220 194 161 176 200 211 206 201 200 197 198 202 205 204 202 196
323 323 333 337 333 331 321 305 314 334 352 358 356 335 324 320 329 42 59 46 315 250 192 183 192 188 187 166 246 232 242 289 239 176 172 184 199 204 217 226 224 284 282 247 229 240 255 264 255 210 188 208 211 223 225 206 215 245 211 122 67 53 117 149 173 155 140 219 220 205 177 129 163 206 180 192 204 198 195 195 199 199 198 199 201 201 200 198
315 317 325 329 332 329 319 318 326 337 352 352 335 332 329 321 62 83 58 321 260 269 289 241 234 185 173 164 226 230 201 270 206 148 163 190 189 205 232 237 256 323 332 314 279 267 272 272 271 231 206 201 195 215 234 226 221 230 145 106 70 348 46 114 156 154 177 232 225 205 181 143 171 211 203 214 213 183 188 191 190 195 197 196 198 199 198 199
306 312 322 326 327 323 320 339 28 349 333 335 338 340 346 29 45 83 220 293 280 245 226 228 228 191 186 183 206 209 160 245 217 147 169 169 134 185 187 178 182 38 335 292 292 312 288 252 259 246 221 182 144 197 257 298 269 167 109 92 96 296 24 122 181 178 205 246 215 180 168 172 219 217 205 208 204 183 191 193 189 190 192 194 197 198 197 199
300 308 315 319 322 321 330 20 31 332 341 349 346 346 38 77 25 271 278 315 261 237 237 207 208 185 169 166 221 215 142 211 238 176 151 114 114 201 216 206 176 139 234 255 324 328 298 275 261 233 226 179 140 149 187 253 267 141 149 124 124 140 97 193 216 158 201 246 192 158 161 199 250 301 237 210 195 187 190 192 192 191 190 192 196 199 199 200
296 302 306 315 321 317 352 28 344 333 356 352 350 10 63 58 293 279 299 277 247 269 343 357 228 183 148 173 226 192 130 240 219 159 149 108 90 187 225 239 208 147 116 334 322 251 204 278 248 206 209 189 156 155 163 166 151 191 183 138 131 160 145 182 202 163 196 221 93 135 160 224 195 273 295 227 175 176 182 187 191 192 193 193 194 198 201 203
293 294 300 314 315 295 28 27 355 353 355 350 358 58 66 23 278 298 302 273 282 321 347 355 26 115 149 237 258 192 144 198 214 155 154 123 88 274 215 273 265 161 119 348 262 255 114 249 261 259 212 184 170 173 140 108 20 276 185 120 135 186 152 153 195 181 177 162 49 73 155 295 202 249 316 39 124 159 170 175 182 187 191 190 191 196 199 203
293 291 295 300 284 103 60 26 359 358 352 0 30 46 4 275 234 230 295 309 333 343 347 358 28 57 339 312 339 306 171 170 221 165 83 101 67 3 355 0 356 75 127 151 210 340 16 270 290 316 251 199 182 169 138 130 167 296 50 168 217 181 128 130 248 265 112 122 63 40 109 307 254 291 337 40 107 149 164 168 177 182 183 186 189 193 196 199
297 292 288 273 231 98 67 29 350 340 341 20 55 317 235 229 267 273 337 344 351 8 38 24 4 17 354 317 343 341 32 135 254 105 36 36 47 1 346 359 16 29 83 124 151 205 102 282 287 319 309 250 202 152 128 140 143 133 213 240 239 154 105 107 190 351 40 108 109 30 80 324 107 69 322 337 146 179 182 171 176 177 177 184 190 191 193 195
317 304 285 236 161 111 73 48 348 295 330 26 3 304 209 254 303 326 356 355 359 35 64 50 319 355 22 338 343 2 7 358 13 90 58 36 38 347 350 352 2 1 358 31 76 215 97 1 284 294 334 277 203 103 96 102 107 134 175 233 167 151 157 138 158 159 91 113 106 13 6 10 65 350 312 313 285 310 253 180 171 173 172 171 177 182 187 190
334 323 300 202 181 189 107 85 205 239 351 32 315 305 330 284 303 333 7 13 24 65 70 44 9 17 6 357 35 17 12 36 32 43 74 47 324 324 11 359 339 344 351 16 79 299 74 99 280 307 328 297 48 75 159 232 324 38 35 14 86 143 169 173 178 165 133 134 140 67 353 301 259 238 287 336 6 1 331 261 144 132 136 129 132 152 166 176
338 334 324 188 191 194 165 161 192 185 36 244 231 271 292 306 308 336 18 37 40 53 73 32 25 25 339 350 34 24 20 47 46 34 65 54 343 346 7 7 350 336 343 17 71 354 31 89 285 310 330 329 102 98 173 172 179 19 27 346 275 19 62 174 266 188 123 135 149 123 193 269 279 235 178 40 59 42 353 340 64 79 83 87 95 112 124 135
346 335 282 147 169 183 170 165 193 177 130 255 255 260 296 310 304 331 19 41 43 48 67 69 37 20 343 10 21 22 30 37 48 52 39 59 78 29 351 12 12 339 346 22 38 10 30 60 330 311 342 341 252 252 182 149 138 127 117 216 193 113 110 99 305 299 85 115 149 144 182 258 347 356 69 59 40 32 23 29 58 67 71 74 76 86 97 104
355 328 188 133 158 196 187 168 243 208 150 273 267 266 291 306 348 349 9 33 39 44 51 54 33 11 26 36 18 31 63 34 33 62 52 64 90 246 343 19 20 11 35 57 309 328 141 77 26 309 293 258 260 283 282 117 104 98 87 254 155 116 127 143 220 269 44 76 106 101 101 53 31 17 64 77 52 22 42 68 76 69 71 74 73 78 86 94
341 311 247 165 181 200 194 236 312 264 213 243 244 270 301 331 25 13 9 22 25 29 38 37 32 29 29 33 19 29 65 51 38 84 102 83 55 292 357 29 23 15 39 43 312 343 352 64 32 320 299 294 306 346 8 25 52 50 4 358 44 100 153 152 180 190 99 101 107 86 74 189 62 41 68 85 77 54 54 68 81 78 75 76 75 75 79 87
334 314 290 233 211 202 181 190 261 258 280 263 235 60 39 31 31 28 10 358 4 58 67 10 22 45 359 336 29 15 24 70 32 30 86 120 352 343 26 35 24 16 33 353 278 339 348 66 60 24 4 347 349 3 1 359 20 26 326 347 356 348 40 92 100 67 82 156 135 116 126 179 92 73 78 86 79 65 65 72 79 80 80 81 81 78 77 79
343 329 336 349 233 218 228 250 213 188 2 9 22 64 63 20 25 39 17 349 13 44 85 112 66 71 21 348 24 17 24 69 40 349 47 66 334 19 33 25 10 358 347 318 295 327 3 119 89 89 98 56 33 13 329 322 324 325 340 351 358 6 11 48 105 67 87 143 118 122 134 115 103 95 90 96 98 92 96 95 87 83 83 84 84 84 82 80
1 350 343 346 350 269 293 346 55 73 54 45 29 359 23 306 27 31 20 3 1 15 80 120 76 69 37 3 32 26 25 50 45 31 31 5 320 329 15 18 3 358 356 355 359 22 102 48 43 104 142 164 181 221 245 242 292 358 8 4 13 21 19 96 111 99 151 122 46 133 142 133 134 128 121 128 128 122 119 114 105 94 90 87 87 87 87 85
6 100 357 344 352 17 24 40 54 58 35 54 67 329 19 41 35 23 16 5 1 13 67 85 42 80 88 36 59 27 9 32 38 34 7 339 303 317 352 24 14 16 28 19 10 31 109 30 4 24 46 191 199 255 303 342 46 44 29 15 21 28 23 44 88 136 148 109 33 231 140 134 144 147 144 152 151 142 130 123 118 108 101 97 93 90 86 84
5 315 6 7 327 316 22 32 50 63 48 48 45 3 42 48 45 34 8 359 11 21 34 55 53 96 122 102 108 52 15 38 28 5 335 340 342 347 2 18 18 20 30 31 21 49 114 55 343 354 353 350 7 354 350 11 38 52 43 22 16 27 25 22 122 157 142 128 144 157 136 130 141 149 151 159 164 152 132 125 123 116 110 106 100 94 89 85
15 328 344 5 357 291 328 350 30 65 55 48 37 26 58 57 40 35 10 4 12 12 17 53 68 57 68 80 104 87 45 78 44 358 342 359 359 12 20 4 7 14 18 26 21 33 93 88 352 17 1 347 1 357 355 13 26 39 39 21 2 18 29 24 64 107 93 113 131 128 119 118 137 153 155 160 159 144 129 128 127 121 115 110 103 98 92 88
27 10 340 348 346 333 341 350 48 76 43 40 57 28 43 59 32 5 15 38 32 359 10 41 55 54 58 53 69 67 43 147 139 12 25 36 12 37 61 315 327 6 12 16 351 359 41 56 348 46 34 338 343 351 352 6 36 52 36 12 4 25 34 34 58 83 84 96 109 111 112 100 104 145 142 148 153 144 136 135 132 126 119 109 101 97 94 92
47 48 4 347 325 342 351 349 65 95 38 21 65 35 34 54 30 3 8 36 55 35 15 38 58 62 53 40 49 37 357 70 163 332 350 27 28 29 40 275 190 23 6 2 350 351 27 22 350 58 56 324 321 342 345 356 45 57 33 4 3 23 35 35 73 100 106 116 113 109 115 113 121 136 130 133 143 140 136 133 127 120 115 109 103 98 95 95
72 77 20 16 320 339 348 330 25 87 102 87 88 74 76 76 47 46 33 14 35 42 41 55 66 62 44 35 27 353 347 352 344 340 349 11 30 36 45 58 73 78 31 349 1 354 25 52 39 63 75 303 320 337 341 6 44 34 353 331 343 357 51 61 77 118 126 133 131 125 137 143 136 136 131 131 137 135 131 129 126 119 114 111 110 105 99 96
Height
1522 1521 1520 1518 1517 1516 1515 1515 1514 1514 1513 1512 1512 1511 1511 1510 1510 1509 1508 1508 1507 1506 1506 1505 1504 1504 1504 1503 1503 1503 1503 1503 1503 1502 1502 1501 1501 1502 1503 1505 1506 1508 1510 1510 1511 1513 1514 1515 1516 1518 1520 1520 1520 1521 1521 1521 1521 1522 1525 1530 1532 1531 1529 1525 1525 1524 1524 1525 1526 1530 1531 1529 1530 1529 1530 1533 1535 1536 1538 1541 1542 1544 1546 1548 1549 1551 1553 1556
1523 1522 1520 1519 1518 1516 1515 1514 1514 1513 1513 1512 1511 1511 1510 1510 1509 1509 1508 1507 1506 1506 1505 1504 1504 1503 1503 1502 1502 1502 1502 1502 1502 1500 1499 1499 1500 1501 1502 1503 1505 1506 1508 1509 1510 1512 1513 1514 1515 1517 1518 1518 1518 1519 1520 1520 1520 1521 1525 1530 1530 1527 1524 1520 1521 1521 1521 1523 1524 1527 1529 1529 1529 1528 1530 1534 1535 1535 1537 1541 1543 1545 1548 1551 1552 1553 1555 1557
1522 1521 1520 1519 1518 1517 1515 1514 1513 1512 1512 1511 1510 1510 1509 1509 1508 1508 1507 1507 1506 1505 1504 1504 1503 1502 1502 1501 1501 1501 1501 1500 1500 1499 1498 1498 1499 1500 1501 1502 1503 1505 1507 1509 1510 1511 1512 1513 1515 1516 1517 1517 1517 1518 1518 1519 1519 1519 1522 1528 1526 1521 1520 1519 1520 1520 1520 1521 1522 1525 1528 1531 1532 1529 1530 1532 1533 1534 1536 1538 1540 1543 1546 1550 1552 1554 1556 1557
1521 1520 1520 1519 1518 1517 1515 1514 1513 1512 1511 1511 1510 1509 1508 1508 1507 1507 1506 1506 1505 1505 1504 1503 1502 1502 1501 1500 1500 1500 1500 1499 1498 1498 1498 1498 1498 1499 1500 1502 1502 1504 1506 1508 1509 1511 1512 1513 1514 1515 1516 1517 1516 1516 1517 1517 1518 1518 1520 1524 1521 1517 1519 1519 1519 1520 1521 1521 1522 1524 1527 1530 1531 1529 1529 1529 1532 1536 1536 1536 1537 1539 1544 1548 1551 1554 1556 1558
1520 1519 1518 1518 1517 1516 1515 1514 1513 1512 1510 1510 1509 1508 1508 1507 1506 1506 1505 1505 1504 1504 1504 1503 1502 1501 1500 1500 1500 1499 1499 1500 1498 1497 1498 1498 1498 1499 1500 1501 1502 1503 1505 1507 1508 1510 1511 1512 1513 1515 1516 1515 1515 1516 1516 1515 1516 1518 1518 1518 1516 1516 1519 1518 1519 1521 1521 1522 1523 1523 1525 1527 1527 1528 1528 1528 1531 1534 1534 1537 1538 1539 1542 1546 1550 1553 1556 1558
1519 1518 1517 1516 1515 1515 1514 1513 1512 1511 1510 1509 1508 1507 1507 1506 1505 1505 1504 1504 1503 1503 1503 1502 1501 1500 1500 1499 1499 1499 1499 1500 1497 1496 1498 1498 1498 1499 1500 1501 1501 1502 1504 1506 1507 1508 1509 1510 1512 1513 1513 1513 1514 1515 1514 1513 1515 1519 1519 1515 1514 1515 1517 1518 1518 1521 1521 1522 1522 1522 1523 1524 1525 1527 1528 1528 1530 1532 1534 1537 1539 1541 1543 1547 1550 1553 1556 1558
1518 1517 1516 1515 1514 1513 1512 1512 1511 1510 1509 1509 1508 1507 1506 1505 1504 1504 1503 1503 1502 1502 1502 1501 1501 1500 1499 1499 1499 1499 1498 1497 1496 1496 1497 1497 1499 1499 1499 1501 1501 1502 1503 1504 1505 1507 1508 1509 1511 1511 1511 1512 1513 1512 1512 1513 1513 1517 1518 1515 1514 1514 1516 1517 1519 1521 1521 1522 1522 1522 1523 1523 1525 1527 1529 1531 1532 1533 1536 1538 1541 1543 1546 1549 1551 1553 1556 1558
1517 1516 1515 1514 1513 1512 1511 1510 1509 1509 1508 1508 1507 1506 1505 1504 1504 1503 1502 1502 1501 1501 1501 1500 1500 1500 1499 1499 1498 1498 1497 1495 1495 1496 1497 1497 1498 1499 1499 1500 1500 1501 1501 1503 1504 1506 1507 1507 1508 1509 1510 1511 1511 1510 1510 1514 1515 1515 1516 1514 1513 1514 1516 1517 1519 1522 1521 1521 1521 1522 1523 1524 1525 1526 1531 1535 1534 1535 1537 1540 1542 1545 1547 1550 1552 1554 1557 1559
1516 1515 1514 1513 1512 1510 1509 1508 1508 1507 1507 1506 1506 1505 1504 1504 1503 1502 1501 1501 1500 1500 1500 1499 1499 1499 1499 1498 1498 1497 1495 1494 1495 1496 1496 1497 1498 1498 1499 1499 1499 1500 1500 1502 1504 1506 1506 1505 1506 1507 1509 1508 1508 1509 1508 1514 1516 1511 1512 1513 1512 1514 1517 1519 1520 1522 1522 1521 1521 1522 1523 1526 1527 1528 1535 1539 1537 1537 1539 1541 1543 1545 1548 1551 1553 1555 1557 1559
1516 1514 1513 1512 1511 1510 1508 1507 1506 1506 1505 1505 1505 1504 1504 1503 1502 1501 1501 1500 1499 1499 1499 1499 1498 1498 1498 1497 1497 1496 1494 1494 1495 1495 1495 1496 1496 1497 1497 1498 1499 1499 1500 1501 1502 1504 1504 1504 1505 1506 1508 1507 1507 1507 1506 1511 1511 1507 1510 1514 1514 1516 1518 1521 1523 1525 1524 1522 1522 1523 1525 1529 1530 1531 1538 1540 1538 1539 1540 1541 1544 1546 1549 1551 1554 1555 1557 1559
1515 1514 1512 1511 1510 1509 1507 1506 1505 1504 1504 1504 1503 1503 1503 1502 1501 1500 1500 1499 1499 1499 1498 1498 1498 1497 1498 1497 1497 1495 1493 1494 1495 1494 1495 1495 1495 1495 1496 1496 1497 1498 1499 1500 1501 1503 1503 1504 1505 1507 1507 1506 1506 1506 1505 1507 1506 1506 1511 1515 1517 1518 1520 1524 1527 1531 1529 1525 1524 1523 1525 1531 1533 1534 1538 1538 1538 1539 1539 1541 1544 1546 1549 1552 1554 1556 1558 1560
1514 1513 1512 1511 1510 1508 1507 1506 1504 1503 1503 1502 1502 1502 1502 1501 1500 1500 1499 1499 1498 1498 1497 1497 1497 1497 1497 1496 1495 1493 1492 1494 1494 1494 1495 1494 1494 1494 1495 1496 1497 1498 1499 1500 1501 1502 1503 1504 1506 1507 1507 1505 1506 1506 1506 1505 1504 1506 1510 1516 1521 1520 1523 1528 1529 1531 1531 1529 1526 1524 1531 1538 1538 1537 1538 1537 1538 1538 1538 1541 1544 1546 1549 1551 1554 1556 1558 1559
1514 1513 1511 1510 1509 1508 1507 1505 1503 1503 1502 1501 1501 1501 1501 1500 1500 1499 1498 1498 1498 1498 1497 1497 1496 1496 1496 1495 1492 1492 1493 1494 1494 1493 1494 1493 1493 1493 1494 1495 1496 1498 1500 1501 1502 1502 1504 1505 1505 1506 1506 1505 1505 1505 1505 1503 1504 1508 1510 1514 1523 1527 1530 1528 1526 1527 1529 1532 1527 1526 1539 1546 1541 1537 1538 1538 1538 1538 1539 1541 1544 1546 1549 1551 1554 1556 1557 1559
1514 1512 1511 1510 1508 1507 1506 1504 1503 1501 1501 1500 1500 1500 1499 1499 1499 1498 1498 1498 1497 1497 1497 1496 1496 1496 1495 1492 1489 1491 1492 1492 1492 1492 1493 1493 1492 1492 1493 1495 1496 1498 1500 1501 1502 1502 1503 1504 1506 1506 1505 1505 1503 1502 1503 1503 1504 1509 1514 1518 1523 1533 1535 1526 1525 1526 1527 1532 1528 1528 1540 1545 1541 1537 1537 1539 1538 1538 1540 1540 1543 1546 1548 1551 1553 1555 1557 1558
1513 1512 1511 1509 1508 1506 1505 1504 1502 1500 1500 1499 1499 1499 1498 1498 1498 1498 1498 1497 1497 1497 1497 1496 1496 1495 1494 1490 1488 1490 1490 1491 1491 1490 1492 1493 1492 1492 1493 1495 1496 1498 1500 1501 1502 1502 1502 1504 1505 1504 1504 1503 1502 1504 1506 1506 1506 1508 1520 1531 1527 1529 1532 1526 1524 1524 1525 1529 1527 1529 1538 1541 1540 1537 1535 1537 1537 1538 1540 1541 1542 1545 1547 1550 1552 1554 1556 1557
1513 1512 1510 1509 1507 1505 1504 1503 1501 1500 1499 1498 1498 1498 1497 1497 1497 1497 1497 1496 1497 1497 1496 1496 1495 1496 1494 1490 1488 1489 1489 1490 1490 1490 1492 1493 1493 1493 1494 1495 1496 1498 1500 1501 1502 1502 1502 1503 1503 1502 1502 1503 1504 1507 1510 1512 1512 1509 1518 1532 1529 1526 1532 1530 1525 1522 1522 1526 1526 1529 1535 1538 1537 1535 1535 1535 1536 1538 1540 1541 1542 1545 1546 1548 1551 1553 1555 1557
1513 1511 1510 1508 1506 1505 1503 1501 1500 1499 1498 1497 1497 1496 1496 1497 1497 1497 1496 1496 1496 1496 1496 1496 1495 1495 1492 1488 1488 1488 1488 1489 1490 1491 1492 1493 1494 1494 1495 1496 1496 1499 1500 1501 1502 1501 1502 1502 1502 1502 1502 1503 1504 1508 1516 1520 1518 1513 1514 1523 1524 1524 1530 1531 1527 1523 1521 1524 1526 1527 1531 1534 1532 1532 1534 1534 1536 1538 1539 1541 1542 1544 1546 1547 1550 1552 1554 1555
1513 1511 1509 1508 1506 1504 1502 1501 1499 1498 1497 1497 1496 1496 1496 1496 1496 1496 1495 1495 1496 1496 1496 1495 1496 1496 1490 1487 1488 1488 1488 1489 1490 1491 1492 1493 1494 1494 1495 1496 1496 1498 1500 1501 1501 1500 1502 1501 1501 1503 1504 1505 1506 1510 1518 1517 1513 1513 1516 1521 1524 1526 1528 1527 1524 1520 1520 1524 1527 1528 1530 1532 1530 1530 1532 1534 1536 1538 1539 1541 1542 1543 1544 1546 1549 1551 1553 1554
1512 1511 1509 1507 1505 1503 1502 1500 1498 1497 1497 1496 1496 1496 1496 1496 1495 1495 1495 1495 1494 1494 1494 1493 1493 1493 1489 1486 1487 1487 1488 1489 1490 1491 1492 1492 1494 1495 1496 1497 1497 1498 1500 1502 1501 1499 1500 1501 1503 1507 1508 1507 1506 1507 1510 1507 1507 1511 1512 1516 1524 1527 1526 1522 1518 1515 1516 1523 1527 1528 1529 1531 1530 1530 1531 1534 1536 1539 1540 1540 1542 1543 1544 1545 1548 1550 1552 1553
1512 1510 1508 1506 1505 1503 1501 1500 1498 1497 1496 1496 1496 1496 1496 1495 1494 1494 1494 1493 1492 1491 1490 1490 1490 1488 1486 1485 1485 1487 1488 1488 1490 1490 1491 1492 1493 1494 1496 1497 1497 1498 1500 1501 1502 1499 1499 1505 1508 1507 1507 1505 1503 1502 1502 1503 1506 1508 1509 1512 1517 1522 1522 1517 1516 1513 1513 1523 1528 1526 1528 1530 1530 1531 1531 1533 1535 1537 1539 1540 1540 1542 1543 1544 1546 1549 1551 1553
1511 1510 1508 1506 1504 1503 1501 1500 1498 1497 1496 1496 1496 1496 1496 1495 1496 1496 1493 1490 1489 1488 1487 1487 1488 1486 1484 1484 1484 1485 1487 1488 1489 1490 1490 1491 1492 1494 1495 1495 1497 1500 1499 1499 1500 1499 1501 1508 1508 1503 1501 1501 1500 1499 1500 1504 1507 1508 1509 1512 1515 1518 1516 1512 1513 1513 1512 1522 1529 1526 1530 1533 1532 1533 1533 1533 1534 1535 1537 1538 1540 1541 1542 1544 1546 1548 1550 1552
1511 1509 1507 1506 1504 1503 1501 1500 1499 1498 1497 1496 1496 1496 1496 1496 1496 1496 1494 1490 1486 1486 1485 1485 1485 1484 1483 1483 1483 1484 1486 1487 1488 1489 1490 1491 1492 1493 1494 1495 1498 1500 1498 1498 1502 1504 1506 1508 1503 1499 1497 1498 1500 1498 1500 1504 1507 1508 1509 1512 1514 1513 1513 1514 1514 1512 1513 1522 1529 1528 1533 1537 1533 1533 1534 1533 1534 1534 1537 1538 1539 1541 1542 1543 1545 1546 1549 1551
1510 1509 1508 1506 1504 1503 1502 1500 1499 1498 1497 1497 1497 1497 1497 1496 1496 1495 1495 1492 1487 1483 1483 1483 1483 1483 1482 1483 1482 1482 1484 1485 1487 1488 1489 1490 1491 1492 1493 1495 1498 1499 1499 1500 1504 1509 1512 1506 1497 1495 1496 1498 1501 1499 1500 1504 1506 1507 1509 1513 1515 1510 1513 1520 1518 1516 1516 1521 1527 1530 1535 1539 1537 1536 1535 1534 1535 1535 1537 1539 1539 1541 1541 1543 1544 1545 1547 1549
1510 1508 1508 1506 1504 1503 1501 1500 1499 1498 1498 1497 1497 1497 1497 1496 1496 1494 1494 1492 1489 1483 1481 1482 1482 1481 1482 1482 1482 1482 1483 1485 1486 1487 1488 1490 1490 1492 1493 1493 1497 1500 1500 1500 1502 1507 1507 1497 1491 1493 1495 1497 1501 1500 1501 1506 1507 1505 1505 1509 1512 1509 1510 1512 1514 1517 1519 1523 1524 1528 1542 1546 1540 1540 1538 1534 1536 1537 1538 1539 1539 1539 1539 1542 1543 1544 1546 1547
1509 1508 1507 1505 1504 1502 1501 1501 1499 1498 1498 1497 1497 1497 1496 1496 1494 1494 1493 1494 1493 1484 1480 1481 1481 1481 1481 1482 1482 1481 1483 1484 1484 1485 1486 1488 1490 1491 1492 1492 1496 1500 1500 1499 1501 1505 1501 1491 1489 1494 1496 1496 1500 1501 1499 1503 1508 1505 1502 1501 1503 1505 1506 1509 1513 1518 1528 1537 1527 1524 1546 1555 1542 1540 1540 1535 1536 1538 1538 1537 1537 1538 1539 1540 1542 1543 1545 1547
1508 1507 1506 1505 1504 1502 1502 1501 1499 1499 1497 1497 1497 1496 1496 1495 1494 1494 1493 1498 1497 1485 1480 1482 1481 1481 1481 1482 1481 1482 1485 1484 1482 1484 1485 1486 1489 1489 1492 1493 1493 1496 1497 1496 1499 1500 1494 1488 1489 1493 1495 1496 1499 1500 1495 1497 1506 1507 1497 1491 1495 1499 1502 1509 1514 1519 1530 1535 1523 1515 1536 1555 1549 1541 1538 1534 1536 1537 1537 1536 1535 1537 1538 1539 1540 1542 1543 1545
1508 1507 1505 1505 1503 1502 1502 1500 1500 1500 1497 1497 1496 1496 1496 1495 1495 1494 1495 1506 1502 1483 1480 1483 1480 1481 1481 1481 1481 1483 1489 1485 1481 1483 1484 1486 1488 1488 1492 1493 1492 1494 1491 1494 1501 1497 1488 1487 1489 1491 1493 1496 1499 1498 1491 1491 1502 1503 1489 1486 1494 1497 1500 1506 1509 1516 1519 1518 1520 1517 1524 1546 1553 1541 1534 1533 1536 1537 1536 1536 1535 1535 1536 1537 1538 1539 1541 1543
1507 1506 1505 1504 1503 1502 1501 1500 1500 1499 1498 1497 1495 1496 1495 1494 1496 1493 1499 1514 1503 1481 1480 1482 1480 1481 1480 1480 1480 1480 1484 1482 1482 1484 1482 1484 1486 1486 1491 1491 1491 1493 1488 1495 1504 1494 1484 1486 1488 1489 1493 1496 1494 1491 1485 1487 1495 1492 1482 1485 1491 1492 1496 1501 1506 1514 1513 1517 1533 1527 1519 1541 1553 1538 1531 1534 1537 1538 1535 1532 1532 1532 1533 1534 1536 1537 1539 1541
1506 1505 1505 1504 1503 1502 1501 1501 1500 1498 1498 1496 1495 1496 1494 1494 1495 1493 1503 1512 1496 1480 1482 1481 1480 1480 1478 1479 1480 1479 1480 1480 1482 1482 1480 1483 1485 1485 1489 1488 1489 1491 1488 1492 1497 1490 1482 1482 1482 1484 1491 1491 1487 1482 1479 1484 1488 1482 1479 1484 1487 1489 1494 1498 1505 1511 1515 1526 1538 1527 1516 1537 1552 1539 1534 1539 1538 1535 1531 1528 1528 1528 1530 1532 1533 1535 1536 1538
1506 1505 1504 1504 1503 1501 1500 1500 1499 1498 1497 1495 1495 1495 1493 1494 1494 1501 1512 1507 1490 1483 1483 1481 1480 1479 1478 1480 1480 1479 1480 1481 1480 1480 1481 1483 1484 1484 1486 1486 1487 1490 1489 1489 1489 1486 1480 1478 1477 1479 1482 1482 1479 1477 1476 1478 1480 1477 1480 1485 1488 1492 1495 1499 1502 1507 1525 1537 1529 1517 1512 1525 1544 1543 1533 1531 1523 1519 1522 1524 1525 1525 1527 1529 1530 1532 1534 1536
1505 1504 1504 1503 1502 1501 1500 1498 1498 1498 1497 1496 1495 1493 1493 1493 1496 1509 1514 1497 1487 1486 1482 1481 1480 1477 1479 1481 1482 1481 1481 1481 1479 1480 1484 1483 1484 1486 1486 1488 1490 1491 1493 1490 1487 1484 1479 1479 1478 1474 1474 1473 1475 1477 1475 1474 1474 1477 1484 1488 1494 1500 1500 1505 1508 1512 1535 1539 1517 1509 1509 1515 1534 1537 1524 1515 1509 1508 1514 1517 1518 1521 1523 1525 1527 1529 1531 1534
1504 1504 1503 1502 1502 1500 1499 1498 1497 1497 1497 1496 1495 1492 1493 1497 1502 1509 1504 1490 1489 1489 1482 1480 1479 1478 1479 1480 1482 1481 1481 1482 1480 1480 1483 1484 1486 1487 1488 1491 1492 1497 1501 1495 1490 1487 1482 1480 1476 1473 1470 1469 1475 1481 1480 1477 1476 1481 1487 1490 1504 1515 1514 1519 1521 1521 1529 1521 1503 1503 1509 1516 1524 1519 1509 1507 1505 1506 1508 1509 1513 1516 1520 1523 1525 1527 1529 1532
1504 1503 1503 1502 1501 1500 1499 1498 1497 1498 1497 1496 1495 1492 1494 1505 1508 1503 1496 1492 1491 1485 1479 1478 1477 1477 1479 1481 1482 1480 1481 1483 1481 1480 1482 1483 1487 1488 1487 1487 1487 1495 1501 1497 1495 1493 1489 1482 1475 1475 1473 1468 1472 1481 1486 1486 1481 1484 1489 1493 1507 1519 1527 1533 1529 1524 1523 1512 1500 1498 1506 1519 1520 1509 1504 1503 1502 1504 1506 1509 1512 1514 1517 1521 1523 1526 1528 1530
1504 1503 1502 1501 1501 1500 1498 1498 1498 1497 1496 1495 1494 1493 1499 1509 1507 1497 1494 1492 1486 1481 1478 1478 1478 1478 1479 1481 1481 1479 1483 1484 1480 1481 1483 1484 1489 1490 1489 1487 1484 1489 1494 1496 1498 1496 1499 1495 1480 1476 1475 1469 1470 1474 1479 1482 1482 1484 1483 1488 1499 1506 1517 1528 1524 1522 1518 1510 1505 1504 1512 1525 1522 1513 1507 1501 1500 1505 1508 1511 1513 1515 1517 1519 1522 1525 1527 1529
1503 1503 1502 1501 1501 1500 1498 1498 1498 1497 1497 1495 1494 1497 1505 1509 1503 1495 1494 1489 1483 1482 1480 1477 1478 1481 1482 1481 1480 1478 1481 1484 1480 1481 1484 1485 1491 1492 1490 1489 1485 1485 1492 1499 1499 1495 1501 1497 1478 1471 1469 1466 1469 1469 1469 1477 1485 1485 1480 1486 1496 1493 1498 1507 1508 1506 1503 1507 1518 1521 1524 1525 1518 1512 1506 1500 1502 1505 1508 1511 1513 1515 1517 1519 1522 1523 1525 1528
1503 1502 1501 1500 1500 1499 1498 1498 1498 1498 1497 1496 1498 1503 1504 1502 1497 1493 1490 1485 1484 1484 1483 1482 1482 1486 1488 1484 1483 1480 1479 1481 1481 1483 1486 1487 1492 1493 1491 1490 1487 1485 1489 1496 1497 1497 1502 1495 1477 1471 1469 1463 1467 1467 1466 1476 1486 1486 1485 1489 1488 1481 1487 1498 1504 1498 1495 1513 1530 1529 1529 1525 1516 1515 1509 1504 1506 1506 1508 1511 1511 1514 1516 1518 1520 1521 1524 1526
1502 1501 1501 1500 1499 1499 1499 1499 1498 1499 1497 1498 1504 1505 1499 1495 1491 1488 1486 1484 1485 1484 1486 1492 1490 1490 1493 1491 1488 1484 1480 1482 1482 1485 1490 1491 1495 1496 1493 1491 1489 1486 1487 1489 1492 1494 1499 1496 1481 1475 1475 1466 1463 1466 1467 1469 1477 1486 1490 1487 1480 1480 1486 1494 1506 1508 1508 1525 1535 1530 1532 1531 1526 1526 1516 1508 1510 1509 1510 1510 1510 1513 1515 1518 1520 1521 1523 1524
1502 1501 1500 1499 1499 1499 1499 1499 1498 1499 1498 1500 1504 1501 1495 1493 1490 1486 1485 1485 1486 1485 1490 1498 1495 1490 1494 1495 1491 1485 1484 1488 1486 1487 1493 1497 1499 1498 1495 1493 1490 1487 1485 1486 1490 1489 1492 1497 1486 1475 1476 1470 1462 1470 1476 1472 1471 1478 1482 1479 1482 1493 1498 1497 1506 1513 1517 1534 1543 1539 1537 1535 1533 1533 1524 1517 1516 1515 1514 1511 1510 1513 1514 1517 1520 1521 1523 1524
1502 1501 1500 1499 1499 1499 1498 1499 1499 1499 1501 1503 1504 1499 1494 1493 1489 1487 1486 1485 1486 1488 1492 1497 1495 1491 1493 1493 1491 1488 1489 1492 1490 1490 1495 1500 1502 1497 1494 1495 1492 1488 1485 1483 1489 1489 1488 1498 1495 1477 1472 1472 1468 1475 1485 1483 1475 1474 1477 1479 1483 1491 1496 1496 1499 1503 1511 1530 1545 1548 1545 1537 1531 1530 1526 1523 1519 1519 1522 1518 1513 1515 1517 1519 1520 1522 1523 1525
1502 1501 1500 1498 1498 1498 1498 1499 1499 1500 1502 1503 1502 1498 1494 1492 1489 1487 1488 1486 1486 1489 1492 1494 1493 1494 1494 1491 1491 1491 1491 1492 1492 1494 1496 1498 1500 1497 1494 1494 1492 1489 1486 1483 1487 1488 1487 1496 1500 1485 1473 1476 1479 1480 1483 1484 1483 1482 1485 1488 1487 1487 1490 1493 1495 1493 1500 1520 1539 1548 1550 1539 1528 1525 1525 1523 1520 1521 1527 1526 1521 1520 1522 1523 1523 1524 1525 1526
1502 1501 1500 1498 1498 1498 1498 1499 1499 1500 1502 1501 1499 1496 1494 1492 1490 1489 1489 1488 1488 1490 1491 1492 1493 1494 1495 1494 1493 1491 1492 1495 1494 1496 1497 1497 1500 1501 1496 1494 1493 1490 1488 1486 1488 1490 1490 1495 1500 1494 1485 1485 1483 1477 1475 1477 1480 1484 1488 1489 1489 1489 1492 1502 1506 1497 1494 1510 1525 1536 1546 1541 1529 1524 1523 1524 1525 1524 1526 1529 1528 1525 1526 1527 1527 1528 1528 1528
1501 1501 1498 1497 1498 1499 1499 1500 1499 1499 1501 1499 1497 1495 1493 1492 1491 1491 1490 1489 1489 1490 1491 1492 1494 1494 1494 1496 1495 1493 1495 1498 1497 1497 1499 1499 1500 1501 1496 1493 1492 1490 1490 1492 1492 1490 1490 1494 1498 1496 1491 1487 1481 1474 1473 1474 1474 1478 1483 1485 1487 1488 1491 1503 1511 1503 1501 1510 1515 1524 1540 1541 1530 1525 1524 1526 1530 1528 1526 1529 1530 1529 1529 1529 1530 1531 1531 1531
1501 1499 1497 1496 1498 1498 1500 1501 1500 1499 1499 1497 1494 1494 1493 1493 1492 1492 1492 1491 1491 1492 1493 1494 1494 1494 1495 1494 1495 1495 1496 1500 1500 1498 1500 1500 1499 1498 1496 1493 1492 1490 1491 1494 1493 1490 1491 1496 1500 1499 1491 1483 1476 1473 1472 1473 1475 1481 1484 1484 1487 1488 1487 1493 1497 1497 1505 1515 1515 1525 1544 1542 1529 1528 1528 1527 1529 1529 1528 1530 1532 1532 1531 1531 1532 1532 1532 1533
1500 1499 1497 1497 1497 1497 1499 1502 1501 1499 1497 1495 1494 1494 1494 1493 1493 1494 1494 1494 1493 1493 1494 1495 1495 1495 1495 1494 1494 1495 1497 1501 1502 1498 1499 1501 1499 1497 1495 1493 1493 1492 1493 1495 1494 1492 1496 1500 1502 1505 1505 1499 1493 1491 1488 1484 1484 1488 1489 1486 1486 1485 1484 1488 1491 1493 1504 1515 1514 1525 1545 1543 1531 1530 1530 1528 1529 1531 1531 1534 1534 1533 1532 1533 1533 1533 1534 1535
1500 1499 1497 1497 1498 1498 1498 1499 1499 1498 1497 1496 1496 1497 1496 1496 1495 1495 1495 1494 1493 1493 1495 1497 1495 1495 1495 1495 1496 1497 1497 1500 1502 1500 1499 1500 1499 1497 1496 1494 1494 1494 1494 1494 1492 1492 1497 1501 1501 1509 1518 1521 1520 1516 1509 1500 1495 1493 1491 1488 1485 1482 1483 1488 1493 1497 1507 1514 1513 1521 1538 1541 1534 1532 1532 1530 1531 1532 1533 1537 1538 1536 1535 1535 1534 1534 1535 1536
1502 1502 1500 1498 1498 1498 1498 1497 1496 1497 1498 1498 1499 1499 1498 1499 1497 1496 1496 1495 1495 1494 1496 1497 1496 1495 1497 1498 1500 1502 1501 1501 1502 1503 1503 1502 1500 1498 1496 1495 1495 1495 1494 1493 1491 1492 1497 1501 1503 1508 1513 1516 1516 1511 1503 1500 1500 1498 1494 1490 1486 1485 1485 1488 1494 1501 1507 1514 1518 1518 1523 1534 1538 1535 1534 1533 1532 1532 1532 1536 1540 1538 1537 1537 1537 1537 1537 1538
1504 1505 1504 1503 1501 1499 1498 1497 1496 1497 1499 1500 1501 1501 1501 1500 1499 1498 1498 1498 1497 1496 1497 1498 1497 1498 1501 1502 1504 1506 1505 1503 1503 1505 1506 1505 1502 1499 1498 1497 1497 1496 1495 1493 1492 1493 1499 1505 1506 1506 1506 1505 1504 1501 1497 1497 1500 1497 1495 1493 1490 1488 1489 1490 1494 1500 1501 1511 1526 1523 1517 1528 1536 1534 1533 1533 1532 1531 1531 1534 1538 1538 1538 1539 1539 1539 1539 1540
1506 1506 1505 1505 1505 1502 1500 1499 1498 1499 1499 1500 1502 1503 1503 1504 1504 1504 1502 1500 1498 1498 1499 1501 1501 1501 1502 1502 1505 1508 1507 1507 1508 1509 1509 1507 1503 1502 1501 1499 1499 1498 1496 1496 1495 1496 1502 1509 1507 1504 1505 1502 1499 1499 1498 1497 1497 1495 1495 1496 1493 1492 1494 1494 1495 1497 1495 1502 1518 1523 1521 1528 1532 1531 1531 1531 1530 1530 1530 1533 1537 1538 1539 1541 1540 1540 1541 1541
1507 1506 1505 1504 1504 1503 1501 1500 1500 1500 1501 1502 1503 1504 1505 1506 1507 1507 1505 1503 1503 1501 1502 1505 1505 1503 1502 1502 1504 1508 1509 1511 1513 1512 1510 1508 1507 1506 1506 1505 1503 1500 1498 1499 1498 1498 1503 1508 1507 1505 1505 1502 1500 1500 1499 1498 1497 1496 1497 1498 1495 1494 1496 1496 1497 1497 1496 1500 1509 1516 1524 1529 1529 1528 1529 1529 1530 1531 1531 1534 1538 1539 1540 1541 1541 1541 1542 1543
1509 1509 1507 1505 1504 1502 1501 1501 1502 1503 1503 1504 1506 1507 1507 1508 1509 1508 1506 1507 1509 1507 1505 1507 1507 1505 1505 1505 1505 1509 1510 1510 1512 1512 1510 1509 1509 1508 1510 1510 1507 1503 1502 1502 1501 1500 1503 1507 1506 1505 1507 1507 1503 1500 1500 1500 1500 1500 1502 1501 1498 1497 1497 1499 1501 1501 1503 1511 1515 1517 1527 1532 1529 1527 1528 1530 1531 1532 1533 1536 1538 1539 1540 1541 1541 1542 1542 1544
1511 1512 1510 1509 1507 1504 1503 1503 1502 1504 1506 1507 1508 1509 1508 1510 1510 1509 1508 1508 1510 1510 1508 1509 1508 1507 1508 1508 1508 1510 1510 1509 1510 1510 1508 1509 1509 1509 1509 1508 1507 1507 1506 1505 1505 1502 1503 1507 1506 1508 1516 1515 1506 1504 1504 1501 1500 1504 1508 1506 1502 1501 1501 1501 1503 1503 1507 1516 1521 1524 1532 1535 1531 1529 1530 1531 1532 1533 1534 1536 1537 1539 1540 1540 1541 1543 1544 1545
1511 1511 1511 1511 1509 1506 1505 1505 1504 1505 1508 1508 1508 1509 1510 1511 1510 1509 1511 1510 1509 1509 1509 1508 1508 1509 1511 1511 1511 1511 1510 1509 1509 1509 1507 1507 1507 1507 1507 1507 1507 1508 1509 1508 1508 1506 1507 1509 1510 1515 1524 1522 1513 1510 1506 1502 1508 1515 1513 1508 1505 1503 1502 1503 1504 1504 1506 1510 1516 1524 1530 1530 1529 1529 1531 1532 1534 1535 1536 1536 1537 1539 1539 1540 1542 1544 1546 1548